This is the latest recevied weather packets stored in our database for station/object OK1PMP-6. If no packets are shown the sender has not sent any weather packets the latest 10 day(s).
| Time | Temp. | Humidity | Pressure | Rain* | Wind** | Luminosity | Snow |
|---|---|---|---|---|---|---|---|
| 1777837380 | 18.89° C | 41% | 1016.8 hPa | 0 mm | - | 0 W/m² | - |
| 1777836481 | 18.89° C | 40% | 1016.7 hPa | 0 mm | - | 0 W/m² | - |
| 1777835580 | 18.89° C | 40% | 1016.8 hPa | 0 mm | - | 0 W/m² | - |
| 1777834680 | 19.44° C | 39% | 1016.7 hPa | 0 mm | - | 0 W/m² | - |
| 1777833782 | 20° C | 38% | 1016.7 hPa | 0 mm | - | 0 W/m² | - |
| 1777832879 | 20° C | 38% | 1016.5 hPa | 0 mm | - | 0 W/m² | - |
| 1777831981 | 20.56° C | 37% | 1016.4 hPa | 0 mm | - | 3 W/m² | - |
| 1777831077 | 21.11° C | 36% | 1016.3 hPa | 0 mm | - | 7 W/m² | - |
| 1777830178 | 22.22° C | 34% | 1016 hPa | 0 mm | - | 17 W/m² | - |
| 1777829278 | 22.22° C | 34% | 1016 hPa | 0 mm | - | 27 W/m² | - |
| 1777828379 | 23.33° C | 33% | 1015.9 hPa | 0 mm | - | 39 W/m² | - |
| 1777827485 | 23.89° C | 31% | 1015.9 hPa | 0 mm | - | 57 W/m² | - |
| 1777826577 | 24.44° C | 31% | 1015.9 hPa | 0 mm | - | 48 W/m² | - |
| 1777825679 | 25° C | 31% | 1016 hPa | 0 mm | - | 81 W/m² | - |
| 1777824777 | 25.56° C | 29% | 1016.2 hPa | 0 mm | - | 63 W/m² | - |
| 1777823876 | 26.11° C | 28% | 1016.1 hPa | 0 mm | - | 63 W/m² | - |
| 1777822977 | 26.11° C | 27% | 1016.3 hPa | 0 mm | - | 96 W/m² | - |
| 1777822077 | 26.67° C | 27% | 1016.5 hPa | 0 mm | - | 87 W/m² | - |
| 1777821178 | 26.67° C | 27% | 1016.4 hPa | 0 mm | - | 119 W/m² | - |
| 1777820278 | 27.22° C | 25% | 1016.7 hPa | 0 mm | - | 201 W/m² | - |
| 1777819377 | 26.67° C | 26% | 1016.8 hPa | 0 mm | - | 93 W/m² | - |
| 1777818477 | 27.78° C | 26% | 1016.9 hPa | 0 mm | - | 149 W/m² | - |
| 1777817577 | 27.22° C | 26% | 1017.1 hPa | 0 mm | - | 276 W/m² | - |
| 1777816676 | 27.22° C | 26% | 1017.4 hPa | 0 mm | - | 446 W/m² | - |
| 1777815773 | 27.22° C | 27% | 1017.6 hPa | 0 mm | - | 474 W/m² | - |
* Rain latest hour (hover to see other rain measurements)
** Current wind speed in m/s (hover to see current wind gust speed)